Nellis AFB, NV

4:21 AM PST on December 15, 2017 (GMT -0800)
Nellis Air Force Base

Weather History for KLSV - August, 2013

Change the Weather History Date:

Monday, August 26, 2013

  Actual Average Record
Temperature  
Mean Temperature 74 °F -  
Max Temperature 77 °F 100 °F 109 °F (1997)
Min Temperature 72 °F 75 °F 72 °F (2013)
Cooling Degree Days 10    
Growing Degree Days 24 (Base 50)    
Moisture  
Dew Point 65 °F    
Average Humidity 71    
Maximum Humidity 78    
Minimum Humidity 63    
Precipitation  
Precipitation 0.01 in - - ()
Sea Level Pressure  
Sea Level Pressure 30.01 in    
Wind  
Wind Speed 7 mph (ENE)    
Max Wind Speed 13 mph    
Max Gust Speed -    
Visibility 10 miles    
Events Rain    
Averages and records for this station are not official NWS values.
T = Trace of Precipitation, MM = Missing Value Source: NWS Daily Summary

Daily Weather History Graph

Daily Weather History Graph

Search for Another Location

Airport or City:

Trip Planner

Search our weather history database for the weather conditions in past years. The results will help you decide how hot, cold, wet, or windy it might be!

Date:

Astronomy

Aug. 26, 2013 Rise Set
Actual Time 6:07 AM PDT 7:15 PM PDT
Civil Twilight 5:40 AM PDT 7:42 PM PDT
Nautical Twilight 5:08 AM PDT 8:13 PM PDT
Astronomical Twilight 4:36 AM PDT 8:46 PM PDT
Moon 10:41 PM PDT (8/26) 12:00 PM PDT (8/26)
Length of Visible Light 14h 01m
Length of Day
13h 08m
Waning Gibbous, 65% of the Moon is Illuminated
Aug 26
Waning Gibbous
Aug 28
Last Quarter
Sep 5
New
Sep 12
First Quarter
Sep 19
Full

Hourly Weather History & Observations

Time (PDT) Temp. Dew Point Humidity Pressure Visibility Wind Dir Wind Speed Gust Speed Precip Events Conditions
12:58 AM 75.0 °F 66.7 °F 75% 29.99 in 10.0 mi East 4.6 mph - N/A   Overcast
1:58 AM 75.6 °F 65.7 °F 71% 29.98 in 10.0 mi ESE 2.3 mph - N/A   Clear
2:58 AM 75.4 °F 65.1 °F 70% 29.98 in 10.0 mi ESE 2.3 mph - N/A   Scattered Clouds
3:58 AM 75.2 °F 65.3 °F 71% 29.99 in 10.0 mi East 5.8 mph - N/A   Mostly Cloudy
4:58 AM 75.4 °F 65.1 °F 70% 30.00 in 10.0 mi ENE 4.6 mph - N/A   Mostly Cloudy
5:48 AM 75.2 °F 66.2 °F 73% 30.05 in 10.0 mi ENE 8.1 mph - N/A   Mostly Cloudy
5:58 AM 75.0 °F 65.7 °F 73% 30.01 in 10.0 mi ENE 6.9 mph - N/A   Mostly Cloudy
6:18 AM 75.2 °F 64.4 °F 69% 30.06 in 10.0 mi ENE 3.5 mph - N/A   Scattered Clouds
6:58 AM 74.7 °F 64.9 °F 72% 30.01 in 10.0 mi ENE 6.9 mph - N/A   Clear
7:58 AM 74.7 °F 66.0 °F 74% 30.02 in 10.0 mi East 5.8 mph - N/A   Scattered Clouds
8:58 AM 75.2 °F 65.5 °F 72% 30.02 in 10.0 mi East 8.1 mph - N/A   Scattered Clouds
9:58 AM 76.8 °F 63.9 °F 64% 30.03 in 10.0 mi East 11.5 mph - N/A   Clear
10:26 AM 77.0 °F 64.4 °F 65% 30.08 in 10.0 mi East 10.4 mph - N/A   Light Drizzle
10:58 AM 75.6 °F 67.5 °F 76% 30.02 in 10.0 mi NE 10.4 mph - 0.01 in   Light Drizzle
11:02 AM 75.2 °F 68.0 °F 78% 30.07 in 10.0 mi NE 9.2 mph - N/A   Partly Cloudy
11:05 AM 75.2 °F 68.0 °F 78% 30.08 in 10.0 mi NE 11.5 mph - N/A   Partly Cloudy
11:11 AM 75.2 °F 66.2 °F 73% 30.07 in 10.0 mi NE 11.5 mph - N/A   Light Drizzle
11:43 AM 75.2 °F 64.4 °F 69% 30.08 in 10.0 mi NE 10.4 mph - N/A   Clear
11:58 AM 75.9 °F 65.1 °F 69% 30.02 in 10.0 mi NE 12.7 mph - 0.00 in   Clear
12:02 PM 75.2 °F 64.4 °F 69% 30.07 in 10.0 mi ENE 11.5 mph - N/A   Light Drizzle
12:27 PM 75.2 °F 66.2 °F 73% 30.06 in 10.0 mi NE 11.5 mph - N/A Rain Light Rain
12:44 PM 75.2 °F 66.2 °F 73% 30.06 in 10.0 mi ENE 9.2 mph - N/A   Clear
12:55 PM 75.2 °F 66.2 °F 73% 30.07 in 10.0 mi ESE 9.2 mph - N/A Rain Light Rain
12:58 PM 75.4 °F 65.5 °F 71% 30.02 in 10.0 mi East 10.4 mph - 0.00 in Rain Light Rain
1:20 PM 75.2 °F 66.2 °F 73% 30.05 in 10.0 mi East 10.4 mph - N/A   Scattered Clouds
1:31 PM 75.2 °F 66.2 °F 73% 30.04 in 10.0 mi East 9.2 mph - N/A   Light Drizzle
1:58 PM 75.2 °F 66.7 °F 75% 29.99 in 10.0 mi East 8.1 mph - 0.00 in Rain Light Rain
2:03 PM 75.2 °F 66.2 °F 73% 30.04 in 10.0 mi ESE 10.4 mph - N/A   Partly Cloudy
2:58 PM 77.2 °F 63.9 °F 63% 29.97 in 10.0 mi NE 8.1 mph - 0.00 in   Scattered Clouds
3:58 PM 74.7 °F 66.0 °F 74% 29.96 in 10.0 mi WNW 11.5 mph - N/A   Mostly Cloudy
4:58 PM 75.7 °F 65.3 °F 70% 29.94 in 10.0 mi West 10.4 mph - N/A   Mostly Cloudy
5:58 PM 75.7 °F 64.2 °F 67% 29.92 in 10.0 mi Calm Calm - N/A   Mostly Cloudy
6:58 PM 75.9 °F 64.8 °F 68% 29.92 in 10.0 mi West 5.8 mph - N/A   Clear
7:58 PM 74.7 °F 63.3 °F 68% 29.92 in 10.0 mi SE 4.6 mph - N/A   Clear
8:58 PM 75.2 °F 63.0 °F 66% 29.94 in 10.0 mi NW 4.6 mph - N/A   Clear
9:58 PM 73.0 °F 64.2 °F 74% 29.94 in 10.0 mi NW 4.6 mph - N/A   Clear
10:58 PM 72.9 °F 63.5 °F 72% 29.93 in 10.0 mi East 2.3 mph - N/A   Clear
11:58 PM 72.0 °F 63.1 °F 74% 29.94 in 10.0 mi North 3.5 mph - N/A   Clear